Home   Weather   35°57'N, 87°07'W   Past weeks
Flag for USA

Past Weather in 35°57'N, 87°07'W, USA — Yesterday and Last 2 Weeks

Now
73 °F

Light rain. Mostly cloudy.


Feels Like: 71 °F
Forecast: 87 / 77 °F
Wind: 8 mph from South

Location: Nashville International Airport

Current Time: Jul 20, 2019 at 11:40:53 pm

Latest Report: Jul 20, 2019 at 10:53 pm


Visibility: 10 mi

Pressure: 29.96 "Hg

Humidity: 90%

Dew Point: 70 °F

Location of 35°57'N, 87°07'WLocation

Past Weather in 35°57'N, 87°07'W — Graph

°F

35°57'N, 87°07'W Temperature Yesterday

Maximum temperature yesterday: 95 °F (at 2:53 pm)
Minimum temperature yesterday: 73 °F (at 3:53 am)
Average temperature yesterday: 84 °F

High & Low Weather Summary for the Past Weeks

 TemperatureHumidityPressure
High95 °F (Jul 9, 4:53 pm)91% (Jul 8, 1:53 am)30.21 "Hg (Jul 8, 1:53 am)
Low72 °F (Jul 6, 5:53 am)41% (Jul 9, 11:53 am)29.82 "Hg (Jul 11, 5:53 pm)
Average82 °F71%29.99 "Hg
* Reported Jul 5 10:53 pm — Jul 20 10:09 pm, 35°57'N, 87°07'W. Weather by CustomWeather, © 2019

Note: Actual official high and low records may vary slightly from our data, if they occured in-between our weather recording intervals... More about our weather records

Advertising

35°57'N, 87°07'W Weather History for the Previous 24 Hours

Scroll right to see more
 ConditionsComfort  
Time TempWeatherWind HumidityBarometerVisibility
10:09 pm
Sat, Jul 20
74 °FOvercast.5 mph88%29.99 "Hg10 mi
9:53 pm74 °FThunderstorms. Mostly cloudy.5 mph88%30.00 "Hg10 mi
8:53 pm74 °FThunderstorms. Overcast.8 mph88%30.04 "Hg10 mi
8:36 pm75 °FThunderstorms. Fog.17 mph88%30.02 "Hg4 mi
8:04 pm77 °FThunderstorms. Mostly cloudy.18 mph88%30.04 "Hg10 mi
7:53 pm78 °FThunderstorms. Passing clouds.21 mph84%30.00 "Hg10 mi
6:53 pm83 °FLight rain. Broken clouds.10 mph77%29.93 "Hg7 mi
6:16 pm80 °FHeavy rain. Partly sunny.17 mph81%29.97 "Hg3 mi
6:02 pm82 °FThunderstorms. Partly sunny.30 mph77%29.97 "Hg4 mi
4:53 pm95 °FBroken clouds.7 mph44%29.93 "Hg10 mi
3:53 pm93 °FPartly sunny.3 mph49%29.94 "Hg10 mi
2:53 pm94 °FScattered clouds.5 mph49%29.95 "Hg10 mi
1:53 pm93 °FBroken clouds.7 mph50%29.98 "Hg10 mi
12:53 pm91 °FBroken clouds.5 mph56%30.00 "Hg10 mi
11:53 am90 °FScattered clouds.9 mph57%30.01 "Hg10 mi
10:53 am84 °FLight rain. Broken clouds.5 mph70%30.03 "Hg10 mi
9:53 am84 °FBroken clouds.5 mph70%30.03 "Hg10 mi
8:53 am83 °FBroken clouds.5 mph72%30.05 "Hg10 mi
7:53 am81 °FPartly sunny.6 mph77%30.05 "Hg10 mi
6:53 am78 °FBroken clouds.3 mph84%30.05 "Hg10 mi
5:53 am77 °FPassing clouds.3 mph88%30.02 "Hg10 mi
4:53 am78 °FSunny.No wind82%30.01 "Hg10 mi
3:53 am78 °FClear.No wind84%30.00 "Hg10 mi
2:53 am77 °FClear.5 mph85%29.99 "Hg10 mi
1:53 am79 °FClear.No wind82%29.99 "Hg10 mi
12:53 am80 °FClear.3 mph76%30.00 "Hg10 mi
11:53 pm
Fri, Jul 19
82 °FPassing clouds.3 mph72%30.00 "Hg10 mi
Weather by CustomWeather, © 2019

See weather overview